Weather History for KEVW - March, 2013

Change the Weather History Date:

Thursday, March 14, 2013

  Actual Average Record
Temperature  
Mean Temperature 47 °F 30 °F  
Max Temperature 58 °F 39 °F - ()
Min Temperature 35 °F 22 °F - ()
Degree Days  
Heating Degree Days 18 35  
Month to date heating degree days 455 516  
Since 1 July heating degree days 6050 6524  
Cooling Degree Days 0 0  
Month to date cooling degree days 0 0  
Year to date cooling degree days 0 0  
Moisture  
Dew Point 23 °F    
Average Humidity 39    
Maximum Humidity 52    
Minimum Humidity 26    
Precipitation  
Precipitation 0.00 in 0.02 in - ()
Month to date precipitation 0.15 0.29  
Year to date precipitation 0.62 1.44  
Sea Level Pressure  
Sea Level Pressure 30.22 in    
Wind  
Wind Speed 8 mph (SSW)    
Max Wind Speed 17 mph    
Max Gust Speed 21 mph    
Visibility 10 miles    
Events      
T = Trace of Precipitation, MM = Missing Value Source: NWS Daily Summary

Daily Weather History Graph

Daily Weather History Graph

Search for Another Location

Airport or City:

Trip Planner

Search our weather history database for the weather conditions in past years. The results will help you decide how hot, cold, wet, or windy it might be!

Date:

Astronomy

Mar. 14, 2013 Rise Set
Actual Time 7:36 AM MDT 7:30 PM MDT
Civil Twilight 7:09 AM MDT 7:57 PM MDT
Nautical Twilight 6:37 AM MDT 8:29 PM MDT
Astronomical Twilight 6:05 AM MDT 9:02 PM MDT
Moon 8:50 AM MDT (3/14) 10:52 PM MDT (3/14)
Length of Visible Light 12h 48m
Length of Day
11h 53m
Waxing Crescent, 9% of the Moon is Illuminated
Mar 14
Waxing Crescent
Mar 19
First Quarter
Mar 27
Full
Apr 2
Last Quarter
Apr 10
New

Hourly Weather History & Observations

Time (MDT) Temp. Windchill Dew Point Humidity Pressure Visibility Wind Dir Wind Speed Gust Speed Precip Events Conditions
12:53 AM 39.9 °F 35.1 °F 23.0 °F 51% 30.25 in 10.0 mi SSW 6.9 mph - N/A   Clear
1:53 AM 39.9 °F 35.1 °F 23.0 °F 51% 30.24 in 10.0 mi SSW 6.9 mph - N/A   Clear
2:53 AM 37.9 °F 34.4 °F 23.0 °F 55% 30.25 in 10.0 mi South 4.6 mph - N/A   Clear
3:53 AM 37.9 °F 32.7 °F 21.9 °F 53% 30.25 in 10.0 mi SE 6.9 mph - N/A   Clear
4:53 AM 39.0 °F 34.8 °F 21.0 °F 49% 30.25 in 10.0 mi South 5.8 mph - N/A   Clear
5:53 AM 37.9 °F - 19.9 °F 48% 30.26 in 10.0 mi Calm Calm - N/A   Clear
6:53 AM 36.0 °F 32.1 °F 19.0 °F 50% 30.29 in 10.0 mi SSE 4.6 mph - N/A   Clear
7:53 AM 37.0 °F 31.6 °F 19.0 °F 48% 30.29 in 10.0 mi SE 6.9 mph - N/A   Clear
8:53 AM 39.0 °F 35.7 °F 21.0 °F 49% 30.28 in 10.0 mi SSE 4.6 mph - N/A   Clear
9:53 AM 44.1 °F 41.5 °F 21.9 °F 42% 30.26 in 10.0 mi SSW 4.6 mph - N/A   Clear
10:53 AM 46.0 °F 41.9 °F 23.0 °F 40% 30.26 in 10.0 mi SW 8.1 mph - N/A   Clear
11:53 AM 50.0 °F - 23.0 °F 35% 30.25 in 10.0 mi SW 10.4 mph - N/A   Clear
12:53 PM 53.1 °F - 25.0 °F 34% 30.22 in 10.0 mi WSW 11.5 mph - N/A   Clear
1:53 PM 55.0 °F - 24.1 °F 30% 30.20 in 10.0 mi WSW 11.5 mph - N/A   Clear
2:53 PM 57.0 °F - 24.1 °F 28% 30.18 in 10.0 mi WSW 11.5 mph - N/A   Clear
3:53 PM 57.9 °F - 24.1 °F 27% 30.17 in 10.0 mi WSW 11.5 mph - N/A   Clear
4:53 PM 52.0 °F - 25.0 °F 35% 30.19 in 10.0 mi WSW 11.5 mph - N/A   Clear
5:53 PM 52.0 °F - 26.1 °F 37% 30.19 in 10.0 mi WSW 8.1 mph - N/A   Clear
6:53 PM 51.1 °F - 24.1 °F 35% 30.19 in 10.0 mi WSW 6.9 mph - N/A   Clear
7:53 PM 46.9 °F - 24.1 °F 41% 30.19 in 10.0 mi WSW 6.9 mph - N/A   Clear
8:53 PM 46.9 °F - 24.1 °F 41% 30.17 in 10.0 mi SW 6.9 mph - N/A   Clear
9:53 PM 48.0 °F - 23.0 °F 37% 30.14 in 10.0 mi SSW 5.8 mph - N/A   Clear
10:53 PM 45.0 °F 40.6 °F 24.1 °F 44% 30.13 in 10.0 mi SW 8.1 mph - N/A   Clear
11:53 PM 44.1 °F 38.6 °F 25.0 °F 47% 30.11 in 10.0 mi SW 10.4 mph - N/A   Clear